VISBY_FLYGPLATS current weather conditions

sailwx.info

Wind from 280 at 7 knots

Air temperature 3.0° C
Visibility: greater than 5.4 NM
Dewpoint 2.0° C

Last reported at 2019-Mar-25 08:50 UTC.
Time now 2019-Mar-25 10:26 UTC

Location: N 57°40' E 018°21'.
View on Google Maps.

See reports from other nearby stations

  
Tides and Currents Weather Stations Pressure Air Temp Water Temp Dewpoint Dewpoint Depression Visibility Wind Speed Wind Dir Waves Ship Positions
date/time (UTC)wind fromknots sea level pressurealtimeterstation pressurevisibilityair tempwater tempwave heightnotes
2019-Mar-25 09:50 310 8 5.4 4.0
2019-Mar-25 09:20 310 8 5.4 3.0
2019-Mar-25 08:50 280 7 5.4 3.0
2019-Mar-25 08:20 260 7 5.4 4.0
2019-Mar-25 07:50 260 7 5.4 3.0
2019-Mar-25 07:20 270 8 5.4 3.0
2019-Mar-25 06:50 270 6 5.4 3.0
2019-Mar-25 06:20 250 6 5.4 3.0
2019-Mar-25 05:50 240 6 5.4 3.0
2019-Mar-25 05:20 260 6 5.4 3.0
2019-Mar-25 04:50 260 5 5.4 2.0
2019-Mar-25 04:20 260 6 5.4 2.0
2019-Mar-25 03:50 250 7 5.4 2.0
2019-Mar-25 03:20 250 8 5.4 2.0
2019-Mar-25 02:50 240 8 5.4 2.0
2019-Mar-25 02:20 240 8 5.4 2.0
2019-Mar-25 01:50 240 7 5.4 3.0
2019-Mar-25 01:20 240 9 5.4 3.0
2019-Mar-25 00:50 240 8 5.4 3.0
2019-Mar-25 00:20 230 8 5.4 3.0
2019-Mar-24 23:50 240 7 5.4 3.0
2019-Mar-24 23:20 240 8 5.4 3.0
2019-Mar-24 22:50 250 8 5.4 3.0
2019-Mar-24 22:20 240 9 5.4 3.0
2019-Mar-24 21:50 240 11 5.4 4.0
2019-Mar-24 21:20 240 12 5.4 4.0
2019-Mar-24 20:50 230 11 5.4 4.0
2019-Mar-24 20:20 240 11 5.4 4.0
2019-Mar-24 19:50 240 9 5.4 4.0
2019-Mar-24 19:20 230 8 5.4 4.0
2019-Mar-24 18:50 240 7 5.4 4.0
2019-Mar-24 18:20 230 9 5.4 5.0
2019-Mar-24 17:50 240 9 5.4 4.0
2019-Mar-24 17:20 230 9 5.4 5.0
2019-Mar-24 16:50 230 11 5.4 6.0
2019-Mar-24 16:20 230 13 5.4 7.0
2019-Mar-24 15:50 230 13 5.4 8.0
2019-Mar-24 15:20 230 14 5.4 8.0
2019-Mar-24 14:50 230 14 5.4 9.0
2019-Mar-24 14:20 230 14 5.4 8.0
2019-Mar-24 13:50 230 12 5.4 8.0
2019-Mar-24 13:20 230 13 5.4 8.0
2019-Mar-24 12:50 230 11 5.4 7.0
2019-Mar-24 12:20 240 11 5.4 7.0
2019-Mar-24 11:50 240 9 5.4 6.0
2019-Mar-24 11:20 250 12 5.4 6.0
2019-Mar-24 10:50 250 11 5.4 5.0
2019-Mar-24 10:20 240 12 5.4 5.0
2019-Mar-24 09:50 250 12 5.4 4.0
2019-Mar-24 09:20 250 12 5.4 4.0
2019-Mar-24 08:50 250 12 5.4 4.0
2019-Mar-24 08:20 250 12 5.4 4.0
2019-Mar-24 07:50 250 11 5.4 4.0
2019-Mar-24 07:20 260 9 5.4 4.0
2019-Mar-24 06:50 260 9 5.4 3.0
2019-Mar-24 06:20 260 11 5.4 3.0
2019-Mar-24 05:50 250 12 5.4 3.0
2019-Mar-24 05:20 250 12 5.4 3.0
2019-Mar-24 04:50 250 11 5.4 3.0
2019-Mar-24 04:20 240 9 5.4 3.0
2019-Mar-24 03:50 250 11 5.4 3.0
2019-Mar-24 03:20 260 11 5.4 3.0
2019-Mar-24 02:50 260 13 5.4 3.0
2019-Mar-24 02:20 250 12 5.4 3.0
2019-Mar-24 01:50 250 13 5.4 3.0
2019-Mar-24 01:20 250 13 5.4 3.0
2019-Mar-24 00:50 250 13 5.4 4.0
2019-Mar-24 00:20 240 11 5.4 3.0
2019-Mar-23 23:50 250 12 5.4 3.0
2019-Mar-23 23:20 240 13 5.4 3.0
2019-Mar-23 22:50 240 13 5.4 4.0
2019-Mar-23 22:20 250 13 5.4 4.0
2019-Mar-23 21:50 250 12 5.4 4.0
2019-Mar-23 21:20 250 12 5.4 4.0
2019-Mar-23 20:50 250 14 5.4 4.0
2019-Mar-23 20:20 260 13 5.4 5.0
2019-Mar-23 19:50 250 13 5.4 5.0
2019-Mar-23 19:20 250 13 5.4 5.0
2019-Mar-23 18:50 270 15 5.4 6.0
2019-Mar-23 18:20 250 11 5.4 5.0
2019-Mar-23 17:50 250 9 5.4 5.0
2019-Mar-23 17:20 260 12 5.4 5.0
2019-Mar-23 16:50 250 11 5.4 6.0
2019-Mar-23 16:20 250 12 5.4 7.0
2019-Mar-23 15:50 240 13 5.4 7.0
2019-Mar-23 15:20 240 13 5.4 8.0
2019-Mar-23 14:50 240 14 5.4 9.0
2019-Mar-23 14:20 240 14 5.4 9.0
2019-Mar-23 13:50 240 14 5.4 9.0
2019-Mar-23 13:20 240 14 5.4 8.0
2019-Mar-23 12:50 240 14 5.4 9.0
2019-Mar-23 12:20 240 15 5.4 8.0
2019-Mar-23 11:50 230 15 5.410.0
2019-Mar-23 11:20 220 13 5.4 9.0
2019-Mar-23 10:50 220 14 3.2 8.0 Light drizzle. Mist.